Location: Unspecified
(36.9193°S, 174.7252°E)
Time: 01:23:46
(UTC+13:00)

Envisat - Pass Details

Date: 29 September 2021
Orbit: 764 x 766 km, 98.2° (Epoch: 18 October)

Event Time Altitude Azimuth Distance (km) Brightness Sun altitude
Rises 04:50:25 0° 42° (NE) 3,225 6.4 -26.0°
Reaches altitude 10° 04:52:58 10° 53° (NE) 2,308 5.8 -25.5°
Maximum altitude 04:57:18 29° 111° (ESE) 1,395 5.0 -24.7°
Drops below altitude 10° 05:01:40 10° 170° (S) 2,333 5.9 -23.9°
Sets 05:04:15 0° 180° (S) 3,268 6.6 -23.4°
